Location: Newark
(41.6478°N, 9.0078°E)
Time: 19:37:40
(UTC+00:00)

UWE-3 - Pass Details

Date: 29 January 2020
Orbit: 585 x 683 km, 97.6° (Epoch: 19 February)

Event Time Altitude Azimuth Distance (km) Brightness Sun altitude
Rises 04:55:54 0° 13° (NNE) 2,890 ? -19.4°
Reaches altitude 10° 04:58:04 10° 14° (NNE) 1,995 ? -19.0°
Maximum altitude 05:02:25 82° 101° (E) 645 ? -18.2°
Drops below altitude 10° 05:06:53 10° 191° (S) 2,041 ? -17.4°
Sets 05:09:06 0° 192° (SSW) 2,962 ? -17.0°
